GW4909 Weather Reports


time (UTC)temp
C
wind
direction
speed
KPH
gust
KPH
rain 1hr
cm
rain 24hr
cm
rain mn
cm
humidity
%
barometer
mb
20260906123009 24 343 0.0 0.0 0.00 0.00 0.00 91 1013.6
20260906122503 23 272 0.0 0.0 0.00 0.00 0.00 93 1013.4
20260906121959 23 291 0.0 0.0 0.00 0.00 0.00 94 1013.2
20260906121455 23 325 0.0 0.0 0.00 0.00 0.00 94 1013.3
20260906120951 23 248 0.0 1.6 0.00 0.00 0.00 94 1013.2
20260906120446 23 275 0.0 0.0 0.00 0.00 0.00 94 1013.1
20260906115943 23 243 0.0 0.0 0.00 0.00 0.00 94 1013.2
20260906115433 23 210 1.6 1.6 0.00 0.00 0.00 94 1013.0
20260906114932 23 211 0.0 0.0 0.00 0.00 0.00 94 1013.4
20260906114432 23 247 0.0 0.0 0.00 0.00 0.00 95 1013.3
20260906113928 23 222 1.6 1.6 0.00 0.00 0.00 95 1013.3
20260906113426 23 244 0.0 0.0 0.00 0.00 0.00 95 1013.6
20260906112923 23 245 0.0 0.0 0.00 0.00 0.00 95 1013.5
20260906112418 23 247 0.0 0.0 0.00 0.00 0.00 95 1013.5
20260906111914 23 247 0.0 0.0 0.00 0.00 0.00 95 1013.4
20260906111413 23 242 0.0 0.0 0.00 0.00 0.00 95 1013.5
20260906110908 23 243 0.0 0.0 0.00 0.00 0.00 95 1013.5
20260906110403 23 242 0.0 0.0 0.00 0.00 0.00 95 1013.3
20260906105903 23 240 0.0 0.0 0.00 0.00 0.00 95 1013.2
20260906105358 23 240 0.0 0.0 0.00 0.00 0.00 95 1013.0
20260906104854 23 238 0.0 0.0 0.00 0.00 0.00 95 1012.9
20260906104352 23 242 0.0 0.0 0.00 0.00 0.00 95 1012.8
20260906103851 23 242 1.6 1.6 0.00 0.00 0.00 95 1012.6
20260906103349 23 231 0.0 1.6 0.00 0.00 0.00 95 1012.4
20260906102846 23 237 0.0 0.0 0.00 0.00 0.00 95 1012.4
20260906102344 23 242 0.0 0.0 0.00 0.00 0.00 95 1012.3
20260906101840 23 232 0.0 0.0 0.00 0.00 0.00 95 1012.2
20260906101335 23 237 1.6 1.6 0.00 0.00 0.00 95 1012.4
20260906100831 23 232 0.0 0.0 0.00 0.00 0.00 95 1012.4
20260906100329 23 231 0.0 0.0 0.00 0.00 0.00 95 1012.6
20260906095825 23 234 0.0 0.0 0.00 0.00 0.00 96 1012.5
20260906095320 23 234 0.0 0.0 0.00 0.00 0.00 96 1012.6
20260906094819 23 236 0.0 0.0 0.00 0.00 0.00 96 1012.6
20260906094315 23 238 0.0 0.0 0.00 0.00 0.00 96 1012.4
20260906093811 23 238 0.0 0.0 0.00 0.00 0.00 96 1012.6
20260906093307 23 244 0.0 0.0 0.00 0.00 0.00 96 1012.6
20260906092802 23 229 0.0 0.0 0.00 0.00 0.00 96 1012.8
20260906092301 23 236 0.0 0.0 0.00 0.00 0.00 96 1012.8
20260906091757 23 247 0.0 0.0 0.00 0.00 0.00 95 1012.7
20260906091253 23 242 0.0 0.0 0.00 0.00 0.00 95 1012.7
20260906090750 23 238 0.0 0.0 0.00 0.00 0.00 95 1012.7
20260906090248 23 238 0.0 0.0 0.00 0.00 0.00 95 1012.7
20260906085748 23 231 0.0 0.0 0.00 0.00 0.00 95 1012.8
20260906085247 23 230 0.0 0.0 0.00 0.00 0.00 95 1012.7
20260906084743 23 231 0.0 0.0 0.00 0.00 0.00 95 1012.8
20260906084242 23 226 0.0 0.0 0.00 0.00 0.00 95 1012.8
20260906083737 23 214 1.6 1.6 0.00 0.00 0.00 95 1012.8
20260906083232 23 250 0.0 0.0 0.00 0.00 0.00 95 1012.6
20260906082727 23 341 1.6 1.6 0.00 0.00 0.00 95 1012.5
20260906082222 23 305 0.0 0.0 0.00 0.00 0.00 95 1012.6
20260906081719 23 217 0.0 1.6 0.00 0.00 0.00 95 1012.6
20260906081213 22 256 0.0 0.0 0.00 0.00 0.00 95 1012.5
20260906080710 22 262 0.0 0.0 0.00 0.00 0.00 95 1012.4
20260906080206 22 240 0.0 0.0 0.00 0.00 0.00 95 1012.4
20260906075706 22 184 1.6 1.6 0.00 0.00 0.00 95 1012.3
20260906075200 22 264 0.0 0.0 0.00 0.00 0.00 94 1012.4
20260906074655 22 264 0.0 0.0 0.00 0.00 0.00 94 1012.5
20260906074154 22 264 0.0 0.0 0.00 0.00 0.00 94 1012.6
20260906073650 22 264 0.0 0.0 0.00 0.00 0.00 94 1012.6
20260906073145 22 256 0.0 0.0 0.00 0.00 0.00 94 1012.4
20260906072640 22 222 0.0 0.0 0.00 0.00 0.00 94 1012.5
20260906072136 22 238 0.0 0.0 0.00 0.00 0.00 94 1012.5
20260906071632 22 251 0.0 0.0 0.00 0.00 0.00 94 1012.5
20260906071126 22 213 1.6 1.6 0.00 0.00 0.00 94 1012.5
20260906070623 22 259 0.0 0.0 0.00 0.00 0.00 94 1012.5
20260906070119 22 262 0.0 0.0 0.00 0.00 0.00 94 1012.4
20260906065618 22 257 0.0 0.0 0.00 0.00 0.00 94 1012.5
20260906065113 22 276 0.0 0.0 0.00 0.00 0.00 94 1012.7
20260906064609 22 284 0.0 0.0 0.00 0.00 0.00 93 1012.4
20260906064104 23 263 0.0 0.0 0.00 0.00 0.00 93 1012.5
20260906063559 23 260 0.0 0.0 0.00 0.00 0.00 93 1012.6
20260906063055 23 261 0.0 0.0 0.00 0.00 0.00 93 1012.4
20260906062551 23 265 0.0 0.0 0.00 0.00 0.00 93 1012.4
20260906062049 23 265 0.0 0.0 0.00 0.00 0.00 93 1012.5
20260906061546 23 274 0.0 0.0 0.00 0.00 0.00 92 1012.8
20260906061045 23 269 0.0 0.0 0.00 0.00 0.00 92 1012.7
20260906060542 23 261 0.0 0.0 0.00 0.00 0.00 92 1012.9
20260906060039 23 267 0.0 0.0 0.00 0.00 0.00 92 1012.8
20260906055535 23 271 0.0 0.0 0.00 0.00 0.00 92 1012.7
20260906055030 23 263 0.0 0.0 0.00 0.00 0.00 92 1012.9
20260906054530 23 262 0.0 0.0 0.00 0.00 0.00 92 1012.8
20260906054025 23 263 0.0 0.0 0.00 0.00 0.00 92 1012.8
20260906053521 23 261 0.0 0.0 0.00 0.00 0.00 92 1012.7
20260906053017 23 259 0.0 0.0 0.00 0.00 0.00 92 1013.0
20260906052512 23 261 0.0 0.0 0.00 0.00 0.00 91 1012.9
20260906052009 23 261 0.0 0.0 0.00 0.00 0.00 91 1012.9
20260906051504 23 260 0.0 0.0 0.00 0.00 0.00 90 1012.9
20260906051000 23 264 0.0 0.0 0.00 0.00 0.00 90 1012.9
20260906050459 23 259 0.0 0.0 0.00 0.00 0.00 90 1012.9
20260906045954 23 267 0.0 0.0 0.00 0.00 0.00 90 1012.9
20260906045452 23 261 0.0 0.0 0.00 0.00 0.00 90 1013.0
20260906044948 23 267 0.0 0.0 0.00 0.00 0.00 90 1013.2
20260906044443 23 270 0.0 0.0 0.00 0.00 0.00 90 1013.1
20260906043939 24 260 0.0 0.0 0.00 0.00 0.00 90 1013.1
20260906043435 24 258 0.0 0.0 0.00 0.00 0.00 90 1013.2
20260906042930 23 269 0.0 0.0 0.00 0.00 0.00 90 1013.3
20260906042430 24 275 0.0 0.0 0.00 0.00 0.00 90 1013.3
20260906041924 24 279 0.0 0.0 0.00 0.00 0.00 90 1013.5
20260906041420 24 265 0.0 0.0 0.00 0.00 0.00 90 1013.2
20260906040915 24 257 0.0 0.0 0.00 0.00 0.00 90 1013.4
20260906040410 24 261 0.0 0.0 0.00 0.00 0.00 89 1013.3
20260906035905 24 263 0.0 0.0 0.00 0.00 0.00 89 1013.3
20260906035400 24 274 0.0 0.0 0.00 0.00 0.00 89 1013.5
20260906034855 24 273 0.0 0.0 0.00 0.00 0.00 88 1013.6
20260906034350 24 259 0.0 0.0 0.00 0.00 0.00 88 1013.5
20260906033846 25 268 0.0 0.0 0.00 0.00 0.00 88 1013.5
20260906033345 25 263 0.0 0.0 0.00 0.00 0.00 87 1013.4
20260906032842 25 256 0.0 0.0 0.00 0.00 0.00 87 1013.5
20260906032337 25 259 0.0 0.0 0.00 0.00 0.00 88 1013.3
20260906031832 25 259 0.0 0.0 0.00 0.00 0.00 86 1013.4
20260906031328 25 256 0.0 0.0 0.00 0.00 0.00 86 1013.5
20260906030828 25 260 0.0 0.0 0.00 0.00 0.00 87 1013.2
20260906030323 25 257 0.0 0.0 0.00 0.00 0.00 86 1013.2
20260906025822 25 256 0.0 0.0 0.00 0.00 0.00 86 1013.1
20260906025316 25 255 0.0 0.0 0.00 0.00 0.00 86 1012.9
20260906024816 25 267 0.0 0.0 0.00 0.00 0.00 85 1012.7
20260906024310 25 257 0.0 0.0 0.00 0.00 0.00 84 1012.9
20260906023805 26 256 0.0 0.0 0.00 0.00 0.00 84 1013.0
20260906023300 26 268 0.0 0.0 0.00 0.00 0.00 83 1013.0
20260906022755 26 261 0.0 0.0 0.00 0.00 0.00 82 1013.1
20260906022250 26 259 0.0 0.0 0.00 0.00 0.00 83 1013.1
20260906021747 26 270 0.0 0.0 0.00 0.00 0.00 83 1013.1
20260906021246 26 266 0.0 0.0 0.00 0.00 0.00 83 1013.1
20260906020741 26 279 0.0 0.0 0.00 0.00 0.00 84 1013.0
20260906020235 26 258 0.0 0.0 0.00 0.00 0.00 82 1013.0
20260906015730 26 254 0.0 0.0 0.00 0.00 0.00 83 1012.9
20260906015228 26 253 0.0 0.0 0.00 0.00 0.00 84 1012.8
20260906014723 26 258 0.0 0.0 0.00 0.00 0.00 84 1012.9
20260906014218 26 272 0.0 0.0 0.00 0.00 0.00 83 1013.1
20260906013709 26 272 0.0 0.0 0.00 0.00 0.00 85 1012.8
20260906013209 26 262 0.0 0.0 0.00 0.00 0.00 84 1012.7
20260906012704 26 267 0.0 0.0 0.00 0.00 0.00 82 1012.6
20260906012203 26 261 0.0 0.0 0.00 0.00 0.00 84 1012.5
20260906011659 26 281 0.0 0.0 0.00 0.00 0.00 84 1012.5
20260906011153 26 255 0.0 0.0 0.00 0.00 0.00 84 1012.3
20260906010649 26 253 0.0 0.0 0.00 0.00 0.00 83 1012.3
20260906010145 26 269 0.0 0.0 0.00 0.00 0.00 83 1012.2
20260906005644 26 273 0.0 0.0 0.00 0.00 0.00 83 1012.0
20260906005144 26 273 0.0 0.0 0.00 0.00 0.00 83 1011.7
20260906004643 26 265 0.0 0.0 0.00 0.00 0.00 82 1011.4
20260906004138 26 302 0.0 0.0 0.00 0.00 0.00 82 1011.1
20260906003633 26 16 0.0 1.6 0.00 0.00 0.00 82 1011.1
20260906003129 26 270 0.0 0.0 0.00 0.00 0.00 81 1011.0
20260906002624 26 184 1.6 1.6 0.00 0.00 0.00 80 1011.2
20260906002119 27 247 0.0 0.0 0.00 0.00 0.00 79 1011.2
20260906001615 27 255 0.0 0.0 0.00 0.00 0.00 77 1011.4
20260906001114 27 248 0.0 0.0 0.00 0.00 0.00 76 1011.3
20260906000611 28 267 0.0 0.0 0.00 0.00 0.00 74 1011.5
20260906000106 28 284 1.6 1.6 0.00 0.00 0.00 73 1011.6
20260905235604 28 42 1.6 1.6 0.00 0.00 0.00 73 1011.9
20260905235100 28 310 1.6 1.6 0.00 0.00 0.00 72 1011.5
20260905234555 28 345 3.2 4.8 0.00 0.00 0.00 72 1011.8
20260905234050 28 322 0.0 1.6 0.00 0.00 0.00 71 1011.5
20260905233545 28 355 1.6 1.6 0.00 0.00 0.00 71 1011.6
20260905233045 28 6 3.2 3.2 0.00 0.00 0.00 69 1011.4
20260905232540 28 354 1.6 3.2 0.00 0.00 0.00 68 1011.4
20260905232036 28 350 0.0 0.0 0.00 0.00 0.00 67 1011.1
20260905231531 28 300 1.6 1.6 0.00 0.00 0.00 67 1011.2
20260905231027 28 282 0.0 1.6 0.00 0.00 0.00 68 1011.0
20260905230526 28 300 1.6 1.6 0.00 0.00 0.00 66 1010.6
20260905230025 29 44 6.4 6.4 0.00 0.00 0.00 64 1010.7
20260905225520 29 30 6.4 11.3 0.00 0.00 0.00 65 1011.0
20260905225015 29 6 8.0 9.7 0.00 0.00 0.00 68 1010.9
20260905224515 29 344 3.2 3.2 0.00 0.00 0.00 69 1011.0
20260905224014 30 351 4.8 4.8 0.00 0.00 0.00 70 1011.1
20260905223513 30 13 6.4 9.7 0.00 0.00 0.00 69 1011.1
20260905223008 32 10 6.4 14.5 0.00 0.00 0.00 65 1011.2
20260905222507 32 264 1.6 1.6 0.00 0.00 0.00 61 1011.3
20260905222003 35 24 12.9 14.5 0.00 0.00 0.00 52 1011.1
20260905221459 36 318 0.0 1.6 0.00 0.00 0.00 48 1010.7
20260905220955 36 279 1.6 3.2 0.00 0.00 0.00 47 1011.0
20260905220451 35 2 6.4 11.3 0.00 0.00 0.00 47 1011.0
20260905215949 36 351 6.4 9.7 0.00 0.00 0.00 48 1011.1
20260905215446 36 11 3.2 3.2 0.00 0.00 0.00 51 1010.7
20260905214942 36 347 6.4 6.4 0.00 0.00 0.00 47 1010.5
20260905214437 36 330 1.6 1.6 0.00 0.00 0.00 49 1011.0
20260905213937 37 1 6.4 9.7 0.00 0.00 0.00 47 1011.0
20260905213434 38 10 3.2 3.2 0.00 0.00 0.00 47 1010.7
20260905212929 38 272 0.0 1.6 0.00 0.00 0.00 44 1011.0
20260905212423 38 313 0.0 0.0 0.00 0.00 0.00 41 1010.7
20260905211917 38 298 1.6 1.6 0.00 0.00 0.00 40 1010.9
20260905211413 37 287 3.2 3.2 0.00 0.00 0.00 45 1010.9
20260905210909 38 276 1.6 1.6 0.00 0.00 0.00 47 1011.0
20260905210408 37 303 0.0 0.0 0.00 0.00 0.00 45 1011.1
20260905205908 36 53 3.2 3.2 0.00 0.00 0.00 45 1010.7
20260905205403 37 311 1.6 1.6 0.00 0.00 0.00 46 1010.7
20260905204902 37 53 1.6 3.2 0.00 0.00 0.00 42 1011.0
20260905204358 37 23 1.6 1.6 0.00 0.00 0.00 45 1011.1
20260905203856 37 356 3.2 4.8 0.00 0.00 0.00 48 1011.1
20260905203352 37 34 3.2 4.8 0.00 0.00 0.00 45 1011.3
20260905202842 37 323 1.6 3.2 0.00 0.00 0.00 45 1011.2
20260905202337 37 339 1.6 1.6 0.00 0.00 0.00 45 1011.4
20260905201833 37 238 0.0 0.0 0.00 0.00 0.00 44 1011.6
20260905201328 37 265 0.0 0.0 0.00 0.00 0.00 46 1011.7
20260905200828 37 264 0.0 1.6 0.00 0.00 0.00 43 1011.7
20260905200325 37 281 4.8 4.8 0.00 0.00 0.00 45 1011.6
20260905195821 37 236 1.6 1.6 0.00 0.00 0.00 47 1011.8
20260905195317 37 2 1.6 1.6 0.00 0.00 0.00 49 1011.7
20260905194813 37 342 1.6 3.2 0.00 0.00 0.00 46 1011.8
20260905194307 38 256 3.2 4.8 0.00 0.00 0.00 46 1011.8
20260905193806 37 236 0.0 1.6 0.00 0.00 0.00 47 1011.8
20260905193302 37 308 3.2 4.8 0.00 0.00 0.00 48 1011.8
20260905192757 37 333 3.2 3.2 0.00 0.00 0.00 50 1011.8
20260905192253 37 297 1.6 1.6 0.00 0.00 0.00 47 1012.2
20260905191752 37 220 3.2 4.8 0.00 0.00 0.00 46 1012.2
20260905191250 37 192 3.2 3.2 0.00 0.00 0.00 44 1012.5
20260905190749 37 210 3.2 6.4 0.00 0.00 0.00 49 1012.3
20260905190248 36 348 4.8 4.8 0.00 0.00 0.00 47 1012.5
20260905185747 36 292 1.6 1.6 0.00 0.00 0.00 49 1012.5
20260905185243 37 325 3.2 4.8 0.00 0.00 0.00 47 1012.6
20260905184742 37 204 1.6 3.2 0.00 0.00 0.00 47 1012.6
20260905184241 37 23 3.2 3.2 0.00 0.00 0.00 48 1012.6
20260905183740 37 225 0.0 1.6 0.00 0.00 0.00 49 1012.6
20260905183237 36 286 0.0 1.6 0.00 0.00 0.00 51 1012.8
20260905182736 36 18 3.2 3.2 0.00 0.00 0.00 51 1012.9
20260905182236 36 205 1.6 3.2 0.00 0.00 0.00 50 1013.1
20260905181731 37 210 1.6 3.2 0.00 0.00 0.00 48 1013.1
20260905181230 37 298 1.6 1.6 0.00 0.00 0.00 49 1013.3
20260905180725 36 293 0.0 1.6 0.00 0.00 0.00 50 1013.3
20260905180221 36 310 1.6 1.6 0.00 0.00 0.00 51 1013.4
20260905175720 36 355 4.8 4.8 0.00 0.00 0.00 52 1013.5
20260905175215 35 209 1.6 3.2 0.00 0.00 0.00 55 1013.4
20260905174710 35 218 1.6 1.6 0.00 0.00 0.00 54 1013.5
20260905174206 36 48 4.8 4.8 0.00 0.00 0.00 53 1013.6
20260905173702 35 54 1.6 3.2 0.00 0.00 0.00 55 1013.6
20260905173157 35 57 1.6 3.2 0.00 0.00 0.00 56 1013.7
20260905172657 36 22 1.6 3.2 0.00 0.00 0.00 54 1013.7
20260905172151 36 32 3.2 3.2 0.00 0.00 0.00 54 1013.9
20260905171647 36 197 4.8 6.4 0.00 0.00 0.00 54 1013.9
20260905171143 36 249 1.6 1.6 0.00 0.00 0.00 56 1013.7
20260905170640 35 128 1.6 1.6 0.00 0.00 0.00 56 1013.9
20260905170135 35 278 0.0 0.0 0.00 0.00 0.00 55 1013.9
20260905165629 35 203 0.0 1.6 0.00 0.00 0.00 53 1014.0
20260905165124 35 359 0.0 1.6 0.00 0.00 0.00 59 1014.0
20260905164625 35 37 1.6 3.2 0.00 0.00 0.00 58 1014.2
20260905164124 34 244 0.0 0.0 0.00 0.00 0.00 60 1014.2
20260905163620 34 77 3.2 3.2 0.00 0.00 0.00 61 1014.2
20260905163116 33 71 1.6 3.2 0.00 0.00 0.00 67 1014.5
20260905162612 33 31 4.8 4.8 0.00 0.00 0.00 65 1014.4
20260905162111 34 350 3.2 4.8 0.00 0.00 0.00 65 1014.5
20260905161611 34 96 0.0 1.6 0.00 0.00 0.00 65 1014.5
20260905161110 33 23 3.2 3.2 0.00 0.00 0.00 66 1014.5
20260905160609 33 348 3.2 3.2 0.00 0.00 0.00 64 1014.6
20260905160108 32 67 3.2 3.2 0.00 0.00 0.00 66 1014.7
20260905155604 33 258 0.0 1.6 0.00 0.00 0.00 65 1014.7
20260905155102 33 268 1.6 1.6 0.00 0.00 0.00 68 1014.7
20260905154557 33 326 4.8 4.8 0.00 0.00 0.00 67 1014.8
20260905154052 33 234 0.0 1.6 0.00 0.00 0.00 66 1014.6
20260905153548 32 167 1.6 3.2 0.00 0.00 0.00 68 1014.8
20260905153048 33 14 0.0 0.0 0.00 0.00 0.00 67 1014.8
20260905152543 33 240 0.0 0.0 0.00 0.00 0.00 66 1014.9
20260905152038 32 194 0.0 1.6 0.00 0.00 0.00 67 1014.9
20260905151527 33 252 1.6 1.6 0.00 0.00 0.00 69 1015.0
20260905151022 32 255 0.0 0.0 0.00 0.00 0.00 68 1015.0
20260905150518 32 249 1.6 3.2 0.00 0.00 0.00 69 1015.0
20260905150015 32 285 3.2 3.2 0.00 0.00 0.00 68 1014.9
20260905145509 32 279 3.2 3.2 0.00 0.00 0.00 69 1014.9
20260905145008 31 219 0.0 1.6 0.00 0.00 0.00 71 1015.1
20260905144503 30 192 3.2 3.2 0.00 0.00 0.00 73 1015.0
20260905144002 31 236 1.6 1.6 0.00 0.00 0.00 75 1015.1
20260905143501 31 191 1.6 1.6 0.00 0.00 0.00 72 1015.0
20260905142956 30 347 3.2 3.2 0.00 0.00 0.00 73 1015.1
20260905142455 30 160 0.0 1.6 0.00 0.00 0.00 72 1015.3
20260905141951 30 250 0.0 0.0 0.00 0.00 0.00 75 1015.0
20260905141445 29 266 0.0 0.0 0.00 0.00 0.00 75 1015.1
20260905140942 30 246 1.6 1.6 0.00 0.00 0.00 78 1015.2
20260905140437 29 268 0.0 0.0 0.00 0.00 0.00 77 1015.2
20260905135935 29 210 1.6 1.6 0.00 0.00 0.00 76 1015.2
20260905135432 28 296 0.0 1.6 0.00 0.00 0.00 78 1015.3
20260905134927 28 148 3.2 3.2 0.00 0.00 0.00 78 1015.3
20260905134426 28 134 1.6 1.6 0.00 0.00 0.00 80 1015.4
20260905133920 28 205 1.6 1.6 0.00 0.00 0.00 79 1015.4
20260905133415 28 198 1.6 1.6 0.00 0.00 0.00 79 1015.5
20260905132914 28 137 0.0 0.0 0.00 0.00 0.00 79 1015.5
20260905132410 28 297 1.6 1.6 0.00 0.00 0.00 78 1015.5
20260905131910 27 207 0.0 0.0 0.00 0.00 0.00 81 1015.4
20260905131406 27 176 0.0 0.0 0.00 0.00 0.00 84 1015.4
20260905130900 26 198 0.0 0.0 0.00 0.00 0.00 87 1015.6
20260905130400 25 0 1.6 1.6 0.00 0.00 0.00 91 1015.6
20260905125855 25 256 0.0 0.0 0.00 0.00 0.00 95 1015.6
20260905125349 24 226 0.0 0.0 0.00 0.00 0.00 97 1015.6
20260905124846 24 257 0.0 0.0 0.00 0.00 0.00 98 1015.6
20260905124342 23 251 0.0 0.0 0.00 0.00 0.00 98 1015.5
20260905123841 23 229 0.0 0.0 0.00 0.00 0.00 98 1015.6
20260905123339 23 249 0.0 0.0 0.00 0.00 0.00 98 1015.5